Regional Weather Roundup
Issued by NWS

Home | Current Version | Previous Version | Graphics & Text | Print | Product List | Glossary On
Versions: 1 2 3 4 5 6 7 8 9 10 11 12 13 14 15 16 17 18 19 20 21 22 23 24 25 26 27 28 29 30 31 32 33 34 35 36 37 38 39 40 41 42 43 44 45 46 47 48 49 50
000
ASUS45 KCYS 291710
RWRWY

WYOMING REGIONAL WEATHER ROUNDUP
NATIONAL WEATHER SERVICE CHEYENNE WY
1000 AM MST THU JAN 29 2015

NOTE:  "FAIR" INDICATES FEW OR NO CLOUDS BELOW 12,000 FEET
WITH NO SIGNIFICANT WEATHER AND/OR OBSTRUCTIONS TO VISIBILITY.

WYZ001-291800-
YELLOWSTONE NATIONAL PARK

CITY           SKY/WX    TMP DP  RH WIND       PRES   REMARKS
LK YELLOWSTONE   N/A     17  17 100 CALM      30.45F
W YELLOWSTONE  NOT AVBL

$$
WYZ002>013-054>058-071-098>099-291800-
NORTHERN WYOMING

CITY           SKY/WX    TMP DP  RH WIND       PRES   REMARKS
JACKSON        CLOUDY    23  19  86 N8        30.46S WCI  14
CODY           FAIR      36  25  64 SW13      30.40S WCI  27
GREYBULL       FOG       30  30 100 CALM      30.46S VSB<1/4
WORLAND        FAIR      29  26  89 CALM      30.44S
SHERIDAN       FAIR      34  25  69 CALM      30.43S
BUFFALO        FAIR      37  28  70 SE6       30.42F WCI  32
GILLETTE       FAIR      38  21  50 SW7       30.45S WCI  33
HULETT           N/A    N/A N/A N/A MISG        N/A
NEWCASTLE      FAIR      32  23  69 NW7       30.50R WCI  26

$$
WYZ014>020-022>026-101>103-291800-
CENTRAL WYOMING

CITY           SKY/WX    TMP DP  RH WIND       PRES   REMARKS
BIG PINEY      FAIR      25  19  78 E3        30.46S
PINEDALE       CLOUDY    21  19  93 NW3       30.47S
DUBOIS         FAIR      25  16  68 NW7       30.41F WCI  17
LANDER         FAIR      36  27  69 CALM      30.43S
RIVERTON       FAIR      38  30  73 CALM      30.44S
CASPER         FAIR      34  29  82 SW8       30.45S WCI  27
DOUGLAS        FAIR      37  22  54 CALM      30.48S

$$
WYZ021-027>030-104>119-291800-
SOUTHERN WYOMING

CITY           SKY/WX    TMP DP  RH WIND       PRES   REMARKS
EVANSTON       PTSUNNY   29  26  89 NE7       30.39S FOG     WCI  22
KEMMERER       PTSUNNY   28  28 100 NE14G21   30.41  WCI  17
FORT BRIDGER   PTSUNNY   30  30 100 N3        30.44S
ROCK SPRINGS   FOG       28  27  96 E10       30.43S VSB 1/4 WCI  19
DIXON          FAIR      36  31  81 CALM      30.44S
RAWLINS        FAIR      34  27  75 E5        30.44S WCI  30
SARATOGA       FAIR      32  30  93 CALM      30.44S
LARAMIE        PTSUNNY   30  26  85 CALM      30.45R
CHEYENNE       FAIR      40  24  53 CALM      30.47R
TORRINGTON     FAIR      39  20  46 NW7       30.50R WCI  34
PINE BLUFFS    FAIR      37  18  44 N7        30.50R WCI  32

$$


USA.gov is the U.S. government's official web portal to all federal, state and local government web resources and services.